Regional Weather Roundup
Issued by NWS Goodland, KS

Home | Current Version | Previous Version | Text Only | Print | Product List | Glossary Off
Versions: 1 2 3 4 5 6 7 8 9 10 11 12 13 14 15 16 17 18 19 20 21 22 23 24 25 26 27 28 29 30 31 32 33 34 35 36 37 38 39 40 41 42 43 44 45 46 47 48 49 50

503
ASUS43 KGLD 222008
RWRGLD

GOODLAND FORECAST AREA HOURLY WEATHER ROUNDUP
NATIONAL WEATHER SERVICE GOODLAND KS
200 PM MDT TUE MAY 22 2018

...OFFICIAL OBSERVATIONS...

CITY           SKY/WX    TMP DP  RH WIND       PRES   REMARKS
GOODLAND KS    CLOUDY    79  53  40 S20G31    29.92F
HILL CITY KS   MOSUNNY   86  62  44 S9G21     29.92F
IMPERIAL NEB   CLOUDY    83  53  35 SE21G33   29.90F
MCCOOK NEB     MOSUNNY   84  58  40 S17G25    29.90F
AKRON CO       PTSUNNY   73  54  51 SE14      29.93F
BURLINGTON CO  CLOUDY    77  52  41 S23G32    29.94F
LIMON CO       MOSUNNY   77  42  28 S15       29.95F
$$

...UNOFFICIAL OBSERVATIONS...

CITY           SKY/WX    TMP DP  RH WIND       PRES   REMARKS
COLBY KS       CLOUDY    84  55  37 S22G29    29.94F
NORTON KS      MOSUNNY   90  55  31 S14G23    29.92
SHARON SPRINGS   N/A     81  53  37 MISG        N/A
KIT CARSON CO    N/A     78  49  35 MISG        N/A
YUMA CO        FAIR      73  18  12 S14G21    29.92F
$$




USA.gov is the U.S. government's official web portal to all federal, state and local government web resources and services.